SL-14 R/B

Satellite information

Favourite Embed

Satellite Type and Status

ROCKET BODYIN ORBIT

Key statistics

Satellite SL-14 R/B at a glance.

Uptime

15355

Days in orbit

Revolutions

≈ 14.9

Per day

Orbit

LEO

Low Earth Orbit

Inclination

82.5

Latest

Satellite identification and parameters

Extended collection of information and parameters for SL-14 R/B.

Object identification

Identified? True

Debris? False

Object name: SL-14 R/B

International designator: 1983-061B

Object number (NORAD): 14148

Object ID (CCSDS): 14148

Country: COMMONWEALTH OF INDEPENDENT STATES (CIS)

Current information (Y/N): Y

RCS size: LARGE

Orbital parameters

Period: 96.947 minutes

Inclination: 82.5173 deg

SMA: 6990.612 km

Apoapsis: 626.909 km

Periapsis: 598.044 km

RAAN: 32.6418 deg

Eccentricy: 0.0020645

Argument of periapsis: 355.5068 deg

Mean anomaly: 4.5959 deg

Mean motion: 14.85354134 rev/day

Mean motion (dot): 0.00000318 rev/day2

B* drag term: 0.000034015 1/REarth

Two-line elements (TLE)

Creation date: July 6, 2025, 6:05 p.m.

Reference frame: TEME

Reference center: EARTH

Epoch: July 6, 2025, 2:58 p.m. UTC

TLE line 0: 0 SL-14 R/B

TLE line 1: 1 14148U 83061B 25187.62383084 .00000318 00000-0 34015-4 0 9992

TLE line 2: 2 14148 82.5173 32.6418 0020645 355.5068 4.5959 14.85354134249868

Live tracking on map

Real-time ground track for satellite SL-14 R/B.

In-orbit conjunctions

A list of the most updated potential collisions computed for object SL-14 R/B.

Target Orbit TCA Probability of collision Miss distance Type
CZ-6A DEB SSO 2025-06-25 05:02:28 0.0006285918 117.0 (m) DEBRIS
OBJECT H SSO 2024-10-14 12:23:29 0.00476027 204.0 (m) UNKNOWN
SURCAL 150B LEO 2024-09-10 07:45:14 0.002771819 524.0 (m) PAYLOAD

Associated space launch

There is no information available about the launch of this satellite, yet. Check back as we update our databases every day.

Latest news about this satellite

There are no fresh news available about this satellite. Check back as we update our databases every day.


Newsletter sign-up

Weekly statistics, charts and insights to help you stay on top of the space industry.